Weather History for LEGE - November, 2012

Change the Weather History Date:

Tuesday, November 6, 2012

  Actual Average Record
Temperature  
Mean Temperature 52 °F -  
Max Temperature 60 °F 60 °F 79 °F (2013)
Min Temperature 44 °F 40 °F 35 °F (1998)
Degree Days  
Heating Degree Days 13    
Growing Degree Days 2 (Base 50)    
Moisture  
Dew Point 47 °F    
Average Humidity 87    
Maximum Humidity 100    
Minimum Humidity 58    
Precipitation  
Precipitation 0.12 in 0.10 in - ()
Sea Level Pressure  
Sea Level Pressure 30.13 in    
Wind  
Wind Speed 2 mph ()    
Max Wind Speed 13 mph    
Max Gust Speed -    
Visibility 6.2 miles    
Events Fog , Rain    
Averages and records for this station are not official NWS values.
T = Trace of Precipitation, MM = Missing Value Source: Averaged Metar Reports

Daily Weather History Graph

Daily Weather History Graph

Search for Another Location

Airport or City:

Trip Planner

Search our weather history database for the weather conditions in past years. The results will help you decide how hot, cold, wet, or windy it might be!

Date:

Astronomy

Nov. 06, 2012 Rise Set
Actual Time 7:27 AM CET 5:36 PM CET
Civil Twilight 6:58 AM CET 6:06 PM CET
Nautical Twilight 6:25 AM CET 6:39 PM CET
Astronomical Twilight 5:52 AM CET 7:11 PM CET
Moon No Moon Rise 1:11 PM CET (11/6)
Length of Visible Light 11h 07m
Length of Day
10h 08m
Waning Gibbous, 56% of the Moon is Illuminated
Nov 6
Waning Gibbous
Nov 7
Last Quarter
Nov 13
New
Nov 20
First Quarter
Nov 28
Full

Hourly Weather History & Observations

Time (CET) Temp. Windchill Dew Point Humidity Pressure Visibility Wind Dir Wind Speed Gust Speed Precip Events Conditions
12:00 AM 50.0 °F - 46.4 °F 87% 30.04 in 6.2 mi Variable 1.2 mph - N/A   Scattered Clouds
12:30 AM 50.0 °F - 46.4 °F 87% 30.06 in 6.2 mi WNW 2.3 mph - N/A   Mostly Cloudy
1:00 AM 52 °F - 46 °F 74% 30.05 in 19 mi NW 3.5 mph - -   Partly Cloudy
1:00 AM 51.8 °F - 44.6 °F 76% 30.06 in 6.2 mi NW 2.3 mph - N/A   Mostly Cloudy
1:30 AM 50.0 °F - 44.6 °F 82% 30.06 in 6.2 mi Calm Calm - N/A   Scattered Clouds
2:00 AM 50.0 °F - 44.6 °F 82% 30.04 in 6.2 mi NW 1.2 mph - N/A   Scattered Clouds
2:30 AM 50.0 °F - 44.6 °F 82% 30.06 in 6.2 mi Calm Calm - N/A   Scattered Clouds
3:00 AM 48.2 °F - 44.6 °F 87% 30.06 in 6.2 mi Calm Calm - N/A   Scattered Clouds
3:30 AM 50.0 °F - 46.4 °F 87% 30.06 in 6.2 mi Calm Calm - N/A   Scattered Clouds
4:00 AM 48.2 °F - 46.4 °F 93% 30.04 in 6.2 mi Calm Calm - N/A   Scattered Clouds
4:30 AM 48.2 °F - 46.4 °F 93% 30.04 in 6.2 mi Calm Calm - N/A   Scattered Clouds
5:00 AM 48.2 °F - 46.4 °F 93% 30.04 in 6.2 mi Calm Calm - N/A   Scattered Clouds
5:30 AM 46.4 °F - 44.6 °F 93% 30.06 in 6.2 mi Calm Calm - N/A   Scattered Clouds
6:00 AM 46.4 °F - 44.6 °F 93% 30.06 in 6.2 mi Calm Calm - N/A   Scattered Clouds
6:30 AM 46.4 °F - 46.4 °F 100% 30.06 in 6.2 mi Calm Calm - N/A   Scattered Clouds
7:00 AM 47 °F - 44 °F 86% 30.07 in 16 mi Calm Calm - -   Partly Cloudy
7:00 AM 44.6 °F - 44.6 °F 100% 30.06 in 6.2 mi Calm Calm - N/A   Mostly Cloudy
7:30 AM 44.6 °F - 44.6 °F 100% 30.06 in 6.2 mi Calm Calm - N/A   Scattered Clouds
8:00 AM 46.4 °F - 46.4 °F 100% 30.06 in 6.2 mi Calm Calm - N/A   Scattered Clouds
8:30 AM 46.4 °F - 46.4 °F 100% 30.09 in 6.2 mi Calm Calm - N/A   Scattered Clouds
9:00 AM 48.2 °F - 46.4 °F 93% 30.09 in 6.2 mi Calm Calm - N/A   Scattered Clouds
9:30 AM 50.0 °F - 48.2 °F 94% 30.09 in 6.2 mi Calm Calm - N/A   Scattered Clouds
10:00 AM 51.8 °F - 50.0 °F 94% 30.12 in 6.2 mi Calm Calm - N/A   Scattered Clouds
10:30 AM 53.6 °F - 46.4 °F 77% 30.12 in 6.2 mi Variable 1.2 mph - N/A   Scattered Clouds
11:00 AM 53.6 °F - 46.4 °F 77% 30.12 in 6.2 mi Calm Calm - N/A   Scattered Clouds
11:30 AM 53.6 °F - 46.4 °F 77% 30.12 in 6.2 mi Calm Calm - N/A   Scattered Clouds
12:00 PM 55.4 °F - 48.2 °F 77% 30.12 in 6.2 mi Calm Calm - N/A   Scattered Clouds
12:30 PM 57.2 °F - 48.2 °F 72% 30.12 in 6.2 mi Calm Calm - N/A   Scattered Clouds
1:00 PM 60 °F - 49 °F 58% 30.10 in 14 mi West 1.2 mph - -   Mostly Cloudy
1:00 PM 57.2 °F - 48.2 °F 72% 30.09 in 6.2 mi WSW 1.2 mph - N/A   Scattered Clouds
1:30 PM 59.0 °F - 46.4 °F 63% 30.09 in 6.2 mi South 1.2 mph - N/A   Scattered Clouds
2:00 PM 59.0 °F - 48.2 °F 67% 30.09 in 6.2 mi SSW 6.9 mph - N/A   Scattered Clouds
2:30 PM 59.0 °F - 48.2 °F 67% 30.09 in 6.2 mi SSW 8.1 mph - N/A   Scattered Clouds
3:00 PM 59.0 °F - 48.2 °F 67% 30.09 in 6.2 mi South 8.1 mph - N/A   Scattered Clouds
3:30 PM 57.2 °F - 48.2 °F 72% 30.09 in 6.2 mi South 8.1 mph - N/A   Scattered Clouds
4:00 PM 59.0 °F - 48.2 °F 67% 30.12 in 6.2 mi South 8.1 mph - N/A   Scattered Clouds
4:30 PM 57.2 °F - 44.6 °F 63% 30.12 in 6.2 mi SSE 8.1 mph - N/A   Mostly Cloudy
5:00 PM 51.8 °F - 44.6 °F 76% 30.15 in 6.2 mi ENE 12.7 mph - N/A Rain Rain
5:09 PM 50.0 °F - 44.6 °F 82% 30.15 in 6.2 mi ENE 10.4 mph - N/A Rain Light Rain
5:17 PM 50.0 °F - 46.4 °F 87% 30.15 in 3.7 mi NE 9.2 mph - N/A Rain Rain
5:30 PM 50.0 °F - 46.4 °F 87% 30.15 in 5.6 mi NE 5.8 mph - N/A Rain Light Rain
6:00 PM 48.2 °F - 48.2 °F 100% 30.18 in 5.6 mi Variable 2.3 mph - N/A Rain Light Rain
6:30 PM 48.2 °F - 48.2 °F 100% 30.18 in 5.6 mi Calm Calm - N/A Rain Rain
6:45 PM 50.0 °F - 48.2 °F 94% 30.18 in 6.2 mi Calm Calm - N/A Rain Light Rain
7:00 PM 51 °F - 48 °F 85% 30.19 in 9 mi Calm Calm - - Rain Light Rain
7:00 PM 50.0 °F - 48.2 °F 94% 30.18 in 6.2 mi West 2.3 mph - N/A Rain Light Rain
7:30 PM 48.2 °F - 48.2 °F 100% 30.21 in 3.7 mi SW 4.6 mph - N/A Rain Light Rain
8:00 PM 50.0 °F - 50.0 °F 100% 30.21 in 5.6 mi Variable 1.2 mph - N/A Rain Light Rain
8:30 PM 48.2 °F - 48.2 °F 100% 30.21 in 5.6 mi South 3.5 mph - N/A Rain Light Rain
9:00 PM 48.2 °F - 48.2 °F 100% 30.24 in 6.2 mi Calm Calm - N/A   Mostly Cloudy
9:30 PM 46.4 °F - 46.4 °F 100% 30.24 in 3.7 mi NE 2.3 mph - N/A   Scattered Clouds
9:38 PM 46.4 °F - 46.4 °F 100% 30.24 in 1.9 mi Variable 2.3 mph - N/A   Scattered Clouds
9:46 PM 46.4 °F - 46.4 °F 100% 30.24 in 0.4 mi Calm Calm - N/A Fog Patches of Fog
9:54 PM 46.4 °F - 46.4 °F 100% 30.24 in 1.9 mi Variable 1.2 mph - N/A   Scattered Clouds
10:00 PM 46.4 °F - 46.4 °F 100% 30.24 in 3.1 mi Variable 2.3 mph - N/A   Scattered Clouds
10:13 PM 46.4 °F 43.5 °F 46.4 °F 100% 30.27 in 5.0 mi North 5.8 mph - N/A   Scattered Clouds
10:30 PM 46.4 °F - 46.4 °F 100% 30.27 in 4.3 mi Variable 2.3 mph - N/A   Scattered Clouds
11:00 PM 46.4 °F - 46.4 °F 100% 30.27 in 3.1 mi Calm Calm - N/A   Scattered Clouds
11:30 PM 44.6 °F - 44.6 °F 100% 30.27 in 5.0 mi Variable 1.2 mph - N/A   Scattered Clouds